Terminal Aerodrome Forecast
Issued by NWS

Current Version | Previous Version | Text Only | Print | Product List | Glossary Off
Versions: 1 2 3 4 5 6 7 8 9 10 11 12 13 14 15 16 17 18 19 20 21 22 23

000
FTUS41 KRLX 011400 AAB
TAFCKB
TAF AMD
KCKB 011434Z 0115/0212 22004KT 6SM BR BKN009 OVC015
     FM011600 23007KT P6SM BKN025
     FM011800 24008KT P6SM BKN035
     FM012000 23007KT P6SM SCT040
     FM020100 21002KT P6SM SCT035
     FM020600 00000KT 5SM BR BKN025=

USA.gov is the U.S. government's official web portal to all federal, state and local government web resources and services.